Location: Lalleu
(47.8555°N, 1.5111°W)
Time: 05:16:35
(UTC+00:00)

Daily predictions for brighter satellites

Satellite Brightness Start Highest point End
(mag) Time Altitude Azimuth Time Altitude Azimuth Time Altitude Azimuth
Cosmos 44 4.5 00:00:32 10° NW 00:04:01 33° W 00:04:01 33° W
SL-24 DEB 4.2 00:02:01 10° N 00:06:39 83° N 00:06:39 83° N
COSMOS 2487 4.2 00:10:12 32° N 00:10:12 32° N 00:12:14 10° NNE
Cosmos 1733 Rocket 4.2 00:11:54 34° WNW 00:11:55 34° WNW 00:15:58 10° N
CZ-4 R/B 4.5 00:09:44 10° NNE 00:14:24 46° E 00:14:24 46° E
CZ-2D R/B 4.4 00:12:44 10° ENE 00:15:09 13° E 00:16:30 12° E
COSMOS 2428 2.7 00:10:10 10° NNW 00:15:56 76° ENE 00:16:52 62° ESE
Lacrosse 4 Rocket 2.0 00:17:22 54° NE 00:17:22 54° NE 00:20:40 10° NNE
Cosmos 2360 Rocket 2.9 00:12:39 10° NW 00:17:41 38° WSW 00:17:41 38° WSW
Lacrosse 5 3.7 00:14:26 10° WNW 00:16:28 19° W 00:16:28 19° W
Cosmos 1544 4.4 00:20:04 39° N 00:20:04 39° N 00:22:29 10° N
Meteor 2-11 Rocket 4.4 00:18:23 61° SW 00:19:24 74° W 00:25:32 10° N
Cosmos 1503 Rocket 4.1 00:21:17 62° ESE 00:21:19 62° ESE 00:26:38 10° NNE
Cosmos 1743 3.9 00:27:18 38° NW 00:27:18 38° NW 00:30:16 10° N
Meteor 2-9 Rocket 4.1 00:27:29 69° SE 00:27:56 73° E 00:33:37 10° NNE
Cosmos 1486 Rocket 4.0 00:27:50 67° W 00:28:13 70° WNW 00:33:27 10° NNE
Cosmos 1782 Rocket 3.8 00:30:21 66° NNE 00:30:21 66° NNE 00:34:08 10° N
Cosmos 1271 Rocket 4.3 00:26:48 10° NNW 00:29:00 28° NW 00:29:00 28° NW
Cosmos 2297 Rocket 3.7 00:30:52 22° ESE 00:31:13 22° E 00:35:26 10° NE
Cosmos 1980 4.5 00:26:55 10° NNW 00:32:24 47° NE 00:34:49 30° ESE
Cosmos 2219 4.5 00:32:41 26° ESE 00:32:55 26° ESE 00:37:29 10° NE
Cosmos 2333 Rocket 2.2 00:29:45 10° NNW 00:35:29 66° WSW 00:35:43 66° SW
Cosmos 1464 Rocket 3.9 00:34:33 63° S 00:35:39 84° E 00:41:54 10° N
Cosmos 839 Rocket 4.5 00:33:42 51° SSW 00:35:55 81° ESE 00:45:03 10° NE
Cosmos 1908 Rocket 4.3 00:38:26 45° WNW 00:38:26 45° WNW 00:42:21 10° N
ERBS 4.4 00:35:20 10° NW 00:38:09 25° NNE 00:38:34 25° NNE
Cosmos 1975 3.5 00:41:49 51° NNW 00:41:49 51° NNW 00:45:03 10° N
Cosmos 2237 Rocket 2.8 00:36:42 10° NNW 00:42:15 51° ENE 00:44:31 32° ESE
Helios 1B rocket 2.7 00:49:57 10° NNE 00:53:28 63° NNE 00:53:28 63° NNE
Nadezhda 4 Rocket 3.9 00:51:17 10° N 00:57:37 86° W 00:58:57 59° S
ATLAS 3B R/B 3.3 00:54:42 25° WSW 00:58:20 50° NW 01:04:50 10° NE
In-Cosmos 22 4.4 00:54:14 10° N 00:59:49 63° ENE 01:01:07 49° SE
Okean 2 Rocket 3.2 01:02:15 72° ENE 01:02:15 72° ENE 01:06:34 10° NNE
Cosmos 1975 Rocket 3.9 00:58:54 10° NNW 01:02:34 41° WNW 01:02:34 41° WNW
SL-16 R/B 3.2 00:59:59 26° SE 01:03:21 50° ENE 01:09:22 10° N
Cosmos 2034 Rocket 3.9 01:02:10 59° SSW 01:03:29 85° W 01:09:51 10° N
Cosmos 1707 3.3 01:01:05 10° N 01:04:13 55° NNW 01:04:13 55° NNW
Cosmos 773 Rocket 3.8 01:01:44 10° NNW 01:06:55 89° WSW 01:07:22 75° SSE
Sich 1 Rocket 3.8 01:10:51 58° WNW 01:10:51 58° WNW 01:14:59 10° N
Cosmos 1092 Rocket 4.0 01:04:33 10° N 01:10:50 77° E 01:12:41 48° SSE
Meteor 1-12 Rocket 4.3 01:11:31 58° S 01:12:45 82° E 01:18:47 10° NNE
Resurs 1-4 Rocket 3.0 01:08:20 10° NNE 01:13:14 37° E 01:14:25 33° SE
Cosmos 1300 Rocket 3.5 01:13:42 80° NNE 01:13:42 80° NNE 01:17:48 10° N
PSLV R/B 4.3 01:10:22 10° N 01:14:49 47° WNW 01:15:06 46° W
Okean 1 Rocket 4.0 01:18:56 35° ESE 01:19:21 36° E 01:23:21 10° NNE
Cosmos 2227 Rocket 2.8 01:19:04 40° SE 01:20:05 44° ESE 01:25:26 10° NE
Iridium 51 4.5 01:15:47 10° N 01:19:58 72° ENE 01:19:58 72° ENE
Cosmos 1674 3.5 01:18:07 10° N 01:21:38 43° ENE 01:21:38 43° ENE
DELTA 2 DEB (DPAF) 4.2 01:25:26 66° ESE 01:25:54 74° ENE 01:30:20 10° N
UNK 4.1 01:27:34 47° SE 01:28:41 62° ENE 01:33:19 10° N
Cosmos 2151 Rocket 3.4 01:33:15 76° W 01:33:19 77° W 01:37:45 10° N
Cosmos 44 Rocket 4.2 01:31:25 10° NW 01:34:55 34° W 01:34:55 34° W
Cosmos 2219 Rocket 3.5 01:32:31 10° NW 01:36:26 25° W 01:36:26 25° W
USA 267 4.1 01:33:51 10° E 01:40:07 50° NNE 01:46:23 10° NW
SJ 16-02 2.7 01:40:06 28° ESE 01:40:54 30° E 01:44:45 10° NE
Spot 1 4.0 01:41:57 66° W 01:41:57 66° W 01:45:49 10° NNW
Cosmos 2344 4.3 01:34:38 10° NW 01:44:09 78° SW 01:57:30 10° SSE
SL-19 R/B 4.3 01:39:03 10° NNE 01:45:03 75° WNW 01:46:42 48° SW
Timation 2 Rocket 4.0 01:44:08 43° SW 01:46:09 68° WNW 01:52:12 10° NNE
DNEPR-1 R/B 4.0 01:41:20 10° NW 01:47:18 87° NE 01:49:48 31° SE
Meteor 2-13 Rocket 4.5 01:42:46 10° NNW 01:48:48 64° W 01:50:31 46° SSW
Cosmos 1025 Rocket 3.9 01:45:37 10° NNW 01:49:04 35° WNW 01:49:04 35° WNW
IRAS Rocket 4.1 01:48:37 47° S 01:50:16 77° WSW 01:55:54 10° NNW
Meteor 1-29 4.3 01:47:42 10° N 01:50:21 31° NW 01:50:21 31° NW
SL-16 R/B 2.5 01:46:00 10° NNW 01:51:42 65° ENE 01:56:46 13° SE
SL-4 R/B 3.6 01:54:33 20° ESE 01:54:33 20° ESE 01:55:42 10° ESE
Cosmos 1777 Rocket 4.1 01:52:38 49° WSW 01:53:53 66° WNW 01:59:11 10° NNE
Meteor 1-24 Rocket 4.1 01:50:04 10° N 01:55:29 57° ENE 01:58:47 23° SE
Lacrosse 4 Rocket 3.8 01:53:39 13° WNW 01:55:41 17° NW 01:58:26 10° N
CZ-2D R/B 2.2 01:50:31 10° NNE 01:56:02 82° ESE 01:57:49 45° S
IRS-1D 4.4 01:51:33 10° NNE 01:56:20 41° E 01:58:30 27° SSE
GEOS 3 Rocket 3.8 01:51:45 10° NE 01:57:09 69° NW 01:59:07 40° WSW
NPP 3.7 01:52:02 10° NNE 01:57:27 73° ESE 01:59:17 42° S
ADEOS II 3.2 01:53:56 10° NNE 01:58:49 38° E 02:01:26 23° SSE
COSMOS 2428 4.3 01:55:39 10° WNW 01:58:51 19° W 01:58:51 19° W
Cosmos 1892 Rocket 4.4 01:56:23 10° N 02:00:43 47° ENE 02:03:00 25° SE
CZ-4B R/B 3.9 01:57:32 10° NNE 02:02:11 49° E 02:03:51 34° SSE
Meteor 2-5 Rocket 3.7 01:57:39 10° N 02:03:21 85° E 02:05:59 33° SSE
KORONAS-FOTON 3.9 02:01:02 10° NNW 02:04:31 58° WNW 02:04:31 58° WNW
Cosmos 923 Rocket 3.9 02:06:25 10° NNW 02:11:47 86° WSW 02:14:41 28° SSE
Cosmos 2279 Rocket 3.9 02:09:05 36° S 02:11:49 90° W 02:18:03 10° N
Cosmos 158 Rocket 4.2 02:06:27 10° NNW 02:11:50 75° ENE 02:16:10 16° SSE
Cosmos 2263 Rocket 4.4 02:08:32 10° SE 02:12:01 17° E 02:15:30 10° ENE
Cosmos 2026 Rocket 4.2 02:06:38 10° NNW 02:12:29 51° W 02:14:26 37° SW
Cosmos 2297 Rocket 2.3 02:12:41 39° SW 02:14:44 66° WNW 02:20:23 10° NNE
Cosmos 1626 2.1 02:12:05 10° N 02:15:49 75° E 02:16:34 54° SSE
Cosmos 1980 4.4 02:11:20 10° NW 02:16:19 32° WSW 02:16:36 32° WSW
Cosmos 2219 3.5 02:14:36 36° WSW 02:16:42 56° WNW 02:22:15 10° NNE
Cosmos 1766 3.1 02:17:11 64° SW 02:17:39 75° W 02:21:34 10° N
Cosmos 1634 Rocket 4.3 02:16:01 35° SW 02:18:23 53° WNW 02:24:30 10° N
Cosmos 2098 Rocket 4.0 02:15:03 10° N 02:19:47 59° E 02:25:09 13° SSE
Meteor 1-22 Rocket 4.1 02:19:30 34° S 02:21:51 76° E 02:27:10 10° NNE
Cosmos 2237 Rocket 3.1 02:21:15 10° NW 02:26:02 29° WSW 02:26:18 29° WSW
Cosmos 1470 3.4 02:32:06 28° SSE 02:33:52 51° E 02:37:45 10° NNE
CZ-4C R/B 4.4 02:35:43 24° WNW 02:35:43 24° WNW 02:38:00 10° NW
Cosmos 1544 Rocket 4.2 02:37:11 22° SSE 02:39:52 53° E 02:44:14 10° NNE
COBE Rocket 3.8 02:39:56 33° SSW 02:41:48 58° W 02:46:24 10° NNW
Cosmos 1607 4.0 02:36:09 10° NW 02:42:28 59° WSW 02:48:47 10° SSE
FALCON 9 DEB 3.1 02:43:24 10° WNW 02:46:55 86° NNE 02:50:23 10° ESE
SL-16 R/B 3.3 02:45:05 27° SW 02:47:10 33° W 02:52:45 10° NNW
Cosmos 1805 4.4 02:48:48 26° W 02:49:30 28° WNW 02:52:53 10° NNW
USA 215 3.3 02:43:22 10° NE 02:49:57 75° SE 02:54:08 24° SW
IRS-P3 4.2 02:46:48 10° NNE 02:52:11 81° ESE 02:55:47 22° S
Resurs 1-4 Rocket 3.0 02:48:16 10° N 02:53:01 35° WNW 02:55:29 23° WSW
Okean 1-7 Rocket 3.5 02:49:03 10° NNW 02:53:26 67° W 02:55:58 25° S
SL-14 R/B 3.7 02:50:04 10° NNW 02:53:48 43° W 02:54:47 35° SW
Okean 1 Rocket 4.4 02:56:08 21° W 02:57:21 24° WNW 03:00:55 10° NNW
Cosmos 1943 4.0 02:51:58 10° NNW 02:57:30 52° ENE 03:02:58 10° SE
Cosmos 1602 Rocket 4.4 02:54:02 10° N 02:58:18 49° ENE 03:02:30 10° SSE
Cosmos 2266 Rocket 4.0 02:56:30 10° NNW 03:02:49 65° W 03:08:13 14° S
Cosmos 1733 4.4 03:02:30 24° W 03:03:29 27° WNW 03:06:47 10° NNW
Cosmos 2227 Rocket 3.2 03:00:53 19° WSW 03:04:15 36° NW 03:09:29 10° NNE
Cosmos 2112 Rocket 4.2 03:00:51 10° NNW 03:05:51 47° WSW 03:09:48 16° S
Cosmos 1655 Rocket 4.4 03:02:49 10° NNW 03:08:43 45° W 03:12:54 19° SSW
CBERS-1 4.4 03:06:36 10° N 03:11:32 49° WNW 03:14:38 21° SW
Meteor 1-21 Rocket 4.4 03:06:07 10° N 03:11:42 75° ENE 03:17:13 10° SSE
Cosmos 1758 3.3 03:09:52 24° SSW 03:12:13 72° W 03:16:15 10° N
Cosmos 1937 Rocket 3.5 03:09:43 20° SSW 03:13:26 88° WNW 03:18:48 10° NNE
ERS-2 3.6 03:12:07 10° SE 03:15:31 38° ENE 03:18:57 10° N
CZ-2C R/B 3.9 03:13:17 10° NNE 03:16:58 40° E 03:20:34 10° S
NOSS 2-3 (E) 4.2 03:14:35 19° SSW 03:17:30 52° ESE 03:22:20 10° NE
ARIANE 5 R/B 2.5 03:13:22 10° NNE 03:18:37 85° WNW 03:23:01 15° SSW
Cosmos 1726 2.2 03:16:23 17° S 03:19:09 78° E 03:22:50 10° NNE
SJ 16-02 2.4 03:17:05 20° WSW 03:19:25 32° WNW 03:23:25 10° N
Cosmos 1898 Rocket 3.7 03:16:03 21° SW 03:19:30 60° WNW 03:24:41 10° NNE
Meteor 2-14 Rocket 4.4 03:14:18 10° N 03:20:24 88° W 03:26:29 10° S
NOSS 3 (A) 4.3 03:19:33 32° SSW 03:20:39 80° SE 03:23:37 10° NE
USA 267 3.2 03:16:23 10° SE 03:22:56 79° SW 03:29:31 10° NW
Cosmos 1680 Rocket 4.4 03:18:39 10° NW 03:23:07 29° W 03:26:06 17° SSW
NOSS 3-1 (C) 3.3 03:20:59 19° SW 03:25:04 84° NW 03:31:34 10° NE
CZ-4C R/B 3.4 03:22:03 10° SSE 03:25:12 58° ENE 03:28:29 10° N
Cosmos 2082 4.4 03:21:37 18° WSW 03:25:28 41° NW 03:30:47 10° NNE
Cosmos 1340 Rocket 3.1 03:24:06 21° SW 03:26:29 48° WNW 03:30:22 10° N
Cosmos 990 Rocket 4.4 03:24:17 19° SW 03:27:48 48° WNW 03:32:50 10° NNE
IDEFIX/ARIANE 42P 2.7 03:23:16 10° NNE 03:28:30 80° ESE 03:33:43 10° SSW
Cosmos 1626 Rocket 3.6 03:26:33 10° NNW 03:30:48 59° W 03:35:02 10° S
Cosmos 1908 4.4 03:27:13 10° SSE 03:30:56 43° E 03:34:41 10° NNE
Cosmos 1455 Rocket 3.9 03:28:31 19° SW 03:31:04 34° WNW 03:35:10 10° N
Cosmos 1809 Rocket 4.5 03:25:10 10° NNW 03:31:09 61° W 03:37:10 10° S
SL-4 R/B 2.6 03:30:22 19° WSW 03:31:34 24° SW 03:34:21 10° SSE
Cosmos 1461 3.5 03:29:10 18° WSW 03:32:13 50° NW 03:36:42 10° NNE
SL-08 R/B 3.9 03:28:35 12° SSW 03:32:58 41° W 03:37:40 10° NNW
Cosmos 372 Rocket 4.3 03:27:55 10° S 03:33:00 67° ESE 03:38:13 10° NNE
Landsat 5 3.6 03:29:33 10° SSE 03:33:26 73° ENE 03:37:29 10° N
Cosmos 1953 2.3 03:30:42 13° SSW 03:34:16 80° W 03:38:20 10° N
ATLAS CENTAUR R/B 3.8 03:31:57 10° SSE 03:34:36 17° ESE 03:37:11 10° ENE
SL-16 R/B 3.4 03:31:00 10° NW 03:35:18 22° W 03:38:31 14° SW
CZ-2C R/B 4.0 03:31:24 10° NNE 03:35:26 30° E 03:39:29 10° SSE
CZ-2D R/B 3.9 03:31:44 10° NNW 03:35:26 19° WNW 03:39:07 10° W
Cosmos 724 4.4 03:31:05 10° NW 03:37:01 62° WSW 03:43:01 10° SSE
CZ-2D R/B 3.3 03:33:18 10° N 03:37:21 73° WNW 03:40:58 12° SSW
ADEOS II 3.0 03:33:45 10° N 03:38:27 34° WNW 03:42:21 14° WSW
NOSS 2-3 (D) 3.8 03:37:43 15° SSW 03:41:16 75° SE 03:46:19 10° NE
Cosmos 1758 Rocket 3.6 03:45:04 10° N 03:49:25 84° E 03:53:44 10° S
Cosmos 2228 4.0 03:45:24 10° SSE 03:49:36 49° E 03:53:52 10° NNE
Meteor 2-10 4.3 03:44:57 10° SSW 03:50:19 60° WNW 03:55:56 10° N
Cosmos 1328 3.9 03:48:15 10° N 03:52:16 81° E 03:56:16 10° SSE
Cosmos 2263 Rocket 2.2 03:49:38 10° SSW 03:55:14 81° WNW 04:00:50 10° NNE
USA 229 DEB 3.9 03:52:48 11° SW 03:59:00 66° NW 04:05:56 10° NE
USA 229 3.8 03:52:53 11° SW 03:59:05 66° NW 04:06:00 10° NE
Cosmos 2297 Rocket 4.2 03:56:26 10° WNW 03:59:56 16° NW 04:03:25 10° N
Cosmos 1703 3.2 03:56:02 10° NNW 04:00:00 70° W 04:03:56 10° S
H-2A R/B 2.3 04:02:58 10° S 04:06:54 44° W 04:10:51 10° NNW
ADEOS Rocket 4.4 04:01:23 10° SE 04:08:49 60° ENE 04:16:27 10° N
NOSS 2-3 (C) 3.9 04:05:15 10° SW 04:09:33 66° NW 04:14:45 10° NE
Cosmos 1300 4.2 04:06:04 10° SSE 04:09:37 39° E 04:13:12 10° NNE
NOSS 3-1 (A) 3.5 04:04:30 10° SW 04:10:03 70° NW 04:16:36 10° NE
Cosmos 1825 Rocket 3.5 04:07:09 10° NNW 04:11:29 73° W 04:15:47 10° S
Cosmos 2298 Rocket 4.1 04:06:26 10° SSW 04:11:45 81° WNW 04:17:07 10° NNE
Cosmos 2285 Rocket 4.1 04:08:59 10° SSW 04:15:18 86° WNW 04:21:39 10° NNE
Cosmos 1603 4.2 04:10:04 10° NW 04:15:19 38° WSW 04:20:30 10° S
SeaSat 1 2.5 04:12:48 10° NNE 04:17:46 90° WNW 04:22:42 10° SSW
Cosmos 1953 Rocket 3.7 04:13:43 10° N 04:18:14 89° E 04:22:43 10° S
Cosmos 1844 Rocket 4.0 04:16:23 10° S 04:21:32 39° ESE 04:26:41 10° NE
PAYLOAD A 4.2 04:16:27 10° NNE 04:21:53 87° WNW 04:27:07 10° SSW
